Weather History for Athens, OH

Change the Weather History Date:

Thursday, March 14, 2013

  Actual Average (KPKB) Record (KPKB)
Temperature  
Mean Temperature 32 °F 43 °F  
Max Temperature 43 °F 53 °F 85 °F (1990)
Min Temperature 21 °F 32 °F 10 °F (1993)
Degree Days  
Heating Degree Days 33 22  
Month to date heating degree days 343  
Since 1 July heating degree days 4133  
Moisture  
Dew Point 16 °F    
Average Humidity 54    
Maximum Humidity 81    
Minimum Humidity 27    
Precipitation  
Precipitation 0.00 in 0.13 in 0.41 in (2008)
Month to date precipitation 1.60  
Year to date precipitation 7.25  
Sea Level Pressure  
Sea Level Pressure 30.25 in    
Wind  
Wind Speed 8 mph (West)    
Max Wind Speed 20 mph    
Max Gust Speed 23 mph    
Visibility 10 miles    
Events      
T = Trace of Precipitation, MM = Missing Value Source: NWS Daily Summary

Daily Weather History Graph

Daily Weather History Graph

Search for Another Location

Airport:

Trip Planner

Search our weather history database for the weather conditions in past years. The results will help you decide how hot, cold, wet, or windy it might be!

Date:

Astronomy

Mar. 14, 2013 Rise Set
Actual Time 7:41 AM EDT 7:35 PM EDT
Civil Twilight 7:14 AM EDT 8:01 PM EDT
Nautical Twilight 6:43 AM EDT 8:32 PM EDT
Astronomical Twilight 6:12 AM EDT 9:04 PM EDT
Moon 8:55 AM EDT (3/14) 10:48 PM EDT (3/14)
Length of Visible Light 12h 47m
Length of Day
11h 53m
Waxing Crescent, 9% of the Moon is Illuminated
Mar 14
Waxing Crescent
Mar 19
First Quarter
Mar 27
Full
Apr 3
Last Quarter
Apr 10
New

Hourly Weather History & Observations

Time (EDT) Temp. Windchill Dew Point Humidity Pressure Visibility Wind Dir Wind Speed Gust Speed Precip Events Conditions
12:15 AM 28.9 °F 19.2 °F 17.4 °F 62% 30.25 in 10.0 mi WNW 11.5 mph 18.4 mph N/A   Overcast
12:35 AM 28.8 °F 19.5 °F 17.8 °F 64% 30.25 in 10.0 mi WNW 10.4 mph - N/A   Overcast
12:55 AM 28.4 °F 20.4 °F 18.1 °F 65% 30.25 in 10.0 mi West 8.1 mph - N/A   Overcast
1:15 AM 28.0 °F 17.5 °F 16.9 °F 63% 30.26 in 10.0 mi WNW 12.7 mph 18.4 mph N/A   Mostly Cloudy
1:35 AM 27.5 °F 21.1 °F 17.1 °F 65% 30.26 in 10.0 mi WNW 5.8 mph - N/A   Mostly Cloudy
2:15 AM 27.3 °F 17.1 °F 16.7 °F 64% 30.27 in 10.0 mi WNW 11.5 mph 17.3 mph N/A   Scattered Clouds
2:35 AM 27.1 °F 16.9 °F 16.5 °F 64% 30.27 in 10.0 mi WNW 11.5 mph 16.1 mph N/A   Clear
2:55 AM 27.0 °F 18.0 °F 16.2 °F 64% 30.27 in 10.0 mi WNW 9.2 mph - N/A   Clear
3:15 AM 26.6 °F 17.5 °F 16.2 °F 65% 30.27 in 10.0 mi WNW 9.2 mph - N/A   Clear
3:35 AM 26.4 °F 18.0 °F 16.5 °F 66% 30.27 in 10.0 mi WNW 8.1 mph - N/A   Clear
3:55 AM 25.9 °F 17.4 °F 16.7 °F 68% 30.27 in 10.0 mi WNW 8.1 mph - N/A   Clear
4:15 AM 25.7 °F 18.0 °F 16.5 °F 68% 30.26 in 10.0 mi WNW 6.9 mph - N/A   Clear
4:35 AM 25.3 °F 17.6 °F 16.5 °F 69% 30.26 in 10.0 mi West 6.9 mph - N/A   Clear
4:55 AM 24.6 °F 17.7 °F 16.7 °F 72% 30.27 in 10.0 mi West 5.8 mph - N/A   Clear
5:15 AM 24.3 °F 18.4 °F 16.5 °F 72% 30.27 in 10.0 mi West 4.6 mph - N/A   Clear
5:35 AM 23.4 °F 16.2 °F 16.7 °F 76% 30.27 in 10.0 mi West 5.8 mph - N/A   Clear
5:55 AM 23.2 °F 17.2 °F 16.5 °F 76% 30.29 in 10.0 mi West 4.6 mph - N/A   Clear
6:15 AM 22.1 °F 15.9 °F 16.2 °F 78% 30.29 in 10.0 mi WSW 4.6 mph - N/A   Clear
6:35 AM 21.7 °F 15.5 °F 16.3 °F 80% 30.30 in 10.0 mi WSW 4.6 mph - N/A   Clear
6:55 AM 22.6 °F 16.5 °F 16.7 °F 78% 30.30 in 10.0 mi SW 4.6 mph - N/A   Clear
7:15 AM 22.5 °F 16.3 °F 16.7 °F 79% 30.30 in 10.0 mi WSW 4.6 mph - N/A   Clear
7:35 AM 21.7 °F 15.5 °F 16.7 °F 81% 30.31 in 10.0 mi SW 4.6 mph - N/A   Clear
7:55 AM 22.6 °F 16.5 °F 16.9 °F 79% 30.31 in 10.0 mi SW 4.6 mph - N/A   Clear
8:15 AM 23.4 °F 17.4 °F 17.4 °F 78% 30.31 in 10.0 mi SW 4.6 mph - N/A   Clear
8:35 AM 23.9 °F 18.0 °F 18.1 °F 79% 30.31 in 10.0 mi WSW 4.6 mph - N/A   Clear
8:55 AM 25.3 °F 18.5 °F 18.7 °F 76% 30.31 in 10.0 mi WSW 5.8 mph - N/A   Clear
9:15 AM 26.4 °F 17.3 °F 18.7 °F 73% 30.32 in 10.0 mi West 9.2 mph - N/A   Clear
9:35 AM 27.5 °F 19.3 °F 17.8 °F 67% 30.32 in 10.0 mi West 8.1 mph - N/A   Clear
9:55 AM 28.8 °F 20.9 °F 17.6 °F 63% 30.33 in 10.0 mi West 8.1 mph - N/A   Clear
10:15 AM 30.0 °F 22.4 °F 17.2 °F 59% 30.33 in 10.0 mi West 8.1 mph - N/A   Clear
10:35 AM 30.9 °F 25.2 °F 16.9 °F 56% 30.33 in 10.0 mi West 5.8 mph - N/A   Clear
10:55 AM 32.0 °F 24.8 °F 16.7 °F 53% 30.33 in 10.0 mi West 8.1 mph - N/A   Clear
11:15 AM 32.0 °F 23.6 °F 14.5 °F 49% 30.32 in 10.0 mi West 10.4 mph - N/A   Clear
11:35 AM 33.3 °F 27.1 °F 15.1 °F 47% 30.31 in 10.0 mi WSW 6.9 mph 10.4 mph N/A   Clear
11:55 AM 34.5 °F 27.9 °F 15.6 °F 46% 30.31 in 10.0 mi SW 8.1 mph - N/A   Clear
12:15 PM 34.7 °F 28.1 °F 14.2 °F 43% 30.31 in 10.0 mi West 8.1 mph 17.3 mph N/A   Clear
12:35 PM 35.8 °F 27.8 °F 14.9 °F 43% 30.30 in 10.0 mi WSW 11.5 mph - N/A   Clear
12:55 PM 36.7 °F 29.4 °F 13.6 °F 39% 30.29 in 10.0 mi WSW 10.4 mph 19.6 mph N/A   Clear
1:15 PM 37.4 °F 31.4 °F 12.7 °F 36% 30.29 in 10.0 mi WSW 8.1 mph 16.1 mph N/A   Clear
1:35 PM 37.6 °F 31.6 °F 11.8 °F 35% 30.27 in 10.0 mi West 8.1 mph 18.4 mph N/A   Clear
1:55 PM 38.7 °F 29.5 °F 12.7 °F 35% 30.26 in 10.0 mi WSW 17.3 mph 20.7 mph N/A   Clear
2:15 PM 39.6 °F 35.4 °F 12.9 °F 34% 30.25 in 10.0 mi WNW 5.8 mph 9.2 mph N/A   Clear
2:35 PM 40.3 °F 33.0 °F 14.0 °F 34% 30.24 in 10.0 mi WSW 12.7 mph 17.3 mph N/A   Clear
2:55 PM 41.2 °F 34.5 °F 14.4 °F 34% 30.22 in 10.0 mi WSW 11.5 mph - N/A   Clear
3:15 PM 41.4 °F 34.3 °F 13.1 °F 32% 30.22 in 10.0 mi West 12.7 mph 21.9 mph N/A   Clear
3:35 PM 42.1 °F 33.3 °F 12.0 °F 29% 30.20 in 10.0 mi West 19.6 mph 23.0 mph N/A   Clear
3:55 PM 42.3 °F 36.3 °F 10.8 °F 28% 30.20 in 10.0 mi WNW 10.4 mph - N/A   Clear
4:15 PM 43.0 °F 37.7 °F 12.4 °F 29% 30.19 in 10.0 mi WNW 9.2 mph 19.6 mph N/A   Clear
4:35 PM 43.3 °F 36.1 °F 12.2 °F 28% 30.19 in 10.0 mi West 15.0 mph 21.9 mph N/A   Clear
4:55 PM 43.0 °F 36.8 °F 10.6 °F 27% 30.19 in 10.0 mi WNW 11.5 mph 20.7 mph N/A   Clear
5:15 PM 42.8 °F 37.0 °F 11.3 °F 28% 30.19 in 10.0 mi WNW 10.4 mph 15.0 mph N/A   Clear
5:35 PM 42.8 °F 36.2 °F 11.5 °F 28% 30.19 in 10.0 mi West 12.7 mph 23.0 mph N/A   Clear
5:55 PM 42.8 °F 37.5 °F 12.0 °F 29% 30.19 in 10.0 mi WSW 9.2 mph 18.4 mph N/A   Clear
6:15 PM 42.3 °F 35.1 °F 11.5 °F 29% 30.19 in 10.0 mi West 13.8 mph 20.7 mph N/A   Clear
6:35 PM 41.9 °F 35.9 °F 12.0 °F 30% 30.19 in 10.0 mi West 10.4 mph - N/A   Clear
6:55 PM 41.2 °F 35.0 °F 12.4 °F 31% 30.19 in 10.0 mi WNW 10.4 mph - N/A   Clear
7:15 PM 40.1 °F 33.6 °F 13.1 °F 33% 30.19 in 10.0 mi West 10.4 mph - N/A   Clear
7:35 PM 38.5 °F 32.7 °F 13.6 °F 36% 30.19 in 10.0 mi West 8.1 mph - N/A   Clear
7:55 PM 37.4 °F 32.1 °F 14.5 °F 39% 30.19 in 10.0 mi West 6.9 mph - N/A   Clear
8:15 PM 36.1 °F 32.3 °F 16.3 °F 45% 30.19 in 10.0 mi West 4.6 mph - N/A   Clear
8:35 PM 34.5 °F 31.6 °F 15.6 °F 46% 30.19 in 10.0 mi West 3.5 mph - N/A   Clear
9:15 PM 33.1 °F - 16.7 °F 51% 30.19 in 10.0 mi Calm Calm - N/A   Clear
9:35 PM 32.9 °F - 16.5 °F 51% 30.19 in 10.0 mi Calm Calm - N/A   Clear
9:55 PM 32.0 °F - 16.2 °F 52% 30.19 in 10.0 mi Calm Calm - N/A   Clear
10:15 PM 31.8 °F - 17.4 °F 55% 30.19 in 10.0 mi Calm Calm - N/A   Clear
10:35 PM 29.8 °F - 19.0 °F 64% 30.19 in 10.0 mi Calm Calm - N/A   Clear
10:55 PM 28.8 °F - 19.4 °F 68% 30.20 in 10.0 mi Calm Calm - N/A   Clear
11:15 PM 28.9 °F - 18.7 °F 66% 30.19 in 10.0 mi Calm Calm - N/A   Clear
11:35 PM 27.5 °F - 18.9 °F 70% 30.19 in 10.0 mi Calm Calm - N/A   Clear
11:55 PM 27.7 °F - 18.0 °F 67% 30.17 in 10.0 mi Calm Calm - N/A   Clear